www.pogodaiklimat.ru

Погода и климат >> Архив погоды >> Йемен >> Аден


ПОГОДА в Адене

  • Прогноз погоды в Адене
  • Монитор погоды в Адене

АРХИВ ПОГОДЫ в Адене

Время (UTC), дата Ветер
(напр.,м/с)
 
Видим.   Явления Облачность Т
(С)
Тd
(С)
f
(%)
Тe
(С)
Тes
(С)
Комфортность P
(гПа)
Po
(гПа)
Тmin
(С)
Tmax
(С)
R
(мм)
R24
(мм)
S
(см)
03 12.06 З 31-11
{13}
40 км 4/4 600 м
[]
+36.5 +11.3 22 +36 +36 очень
жарко
1001.9 1001.6 29
06 12.06 С 7-10
{13}
7000 м мгла ясно +40.5 +8.4 15 +39 +42 очень
жарко
1002.7 1002.4 295
09 12.06 З 50 40 км 4/1 1000 м
[Cu hum]
+20.2 +17.6 85 +21 +21 комфорт 813.9
15 12.06 З 60-12
{14}
40 км 4/4 600 м
[]
+43.7 +8.2 12 +42 +42 опасность
перегрева
1000.5 1000.2 76
18 12.06 С 7-12
{14}
10 км ясно +40.5 +7.0 13 +38 +38 очень
жарко
1002.5 1002.2
21 12.06 С 8-11
{12}
10 км ясно +37.8 +6.4 15 +35 +35 очень
жарко
1002.4 1002.1 +36.2 +47.7
00 13.06 С 7-10
{13}
35 км н/о +34.9 +7.6 19 +33 +33 жарко 1001.9 1001.6
03 13.06 З 50 40 км 4/0 1000 м
[Ci]
+10.5 +10.0 97 +2 +2 1000.8
06 13.06 Ю 11-15
{16}
40 км пыльный позёмок 4/4 600 м
[]
+40.1 +7.0 13 +37 +37 очень
жарко
1003.3 1003.0 303
09 13.06 Ю 1 10 км 4/1 600 м
[Cu hum Ci]
+21.1 +14.9 68 +24 +45 комфорт 812.7
12 13.06 Ю 60-14
{17}
40 км мгла 5/5 600 м
[]
+44.9 +5.1 9 +42 +42 опасность
перегрева
1001.0 1000.7 337
21 13.06 С 1 10 км {ливн. осадки} ясно +11.2 +10.9 98 +12 +12 812.7
09 14.06 З 50 40 км 4/1 1000 м
[Cu hum]
+21.3 +16.0 72 +25 +25 комфорт 814.7
12 14.06 З 31-5
{11}
40 км 5/5 600 м
[]
+45.5 +4.1 8 +42 +42 опасность
перегрева
999.8 999.5 340
15 14.06 З 41-6
{7}
40 км 5/5 600 м
[]
+42.7 +2.8 9 +39 +39 очень
жарко
999.6 999.3 74
21 14.06 штиль 0-2
{3}
40 км мгла 3/3 600 м
[]
+32.2 +2.9 16 +30 +30 жарко 999.9 999.6 +31.3 +46.5
00 15.06 С 1 10 км 3/3 600 м
[Cb cap]
+10.5 +10.2 98 +10 +10 814.9
03 15.06 С 1 10 км 10/3 600 м
[Cb cap Ac lent]
+12.0 +10.2 89 +13 +13 1000.8
09 15.06 Ю 1 10 км ясно +19.7 +14.6 72 +23 +48 комфорт 815.2
15 15.06 ЮВ 4-6
{8}
8000 м мгла ясно +43.8 +4.8 10 +41 +41 опасность
перегрева
999.5 999.2 70
18 15.06 Ю 2-3
{8}
10 км ясно +36.2 +3.2 13 +33 +33 жарко 1000.2 999.9
21 15.06 С 1 10 км {ливн. осадки} 4/0
[Ac lent]
+12.2 +11.9 98 +12 +12 815.3
03 16.06 Ю 2-2
{3}
7000 м мгла ясно +31.4 +3.7 17 +29 +29 жарко 1000.8 1000.5 30
09 16.06 Ю 20-3
{7}
40 км мгла 4/4 600 м
[]
+47.8 +4.1 7 +45 +45 опасность
перегрева
1000.9 1000.6 429
12 16.06 З 31-6
{8}
40 км 4/0 600 м
[Ci fib]
+46.5 +8.8 11 +45 +45 опасность
перегрева
1005.6 1005.3 334
21 16.06 С 1 10 км 3/0
[Ac lent]
+14.2 +13.8 97 +15 +15 813.0
03 17.06 0-4
{4}
пыль н/о +33.4 +6.2 18 1001.9 27
06 17.06 0-9
{9}
н/о +41.4 +6.4 12 1003.1 294
09 17.06 0-10
{10}
н/о +45.8 +5.1 9 1002.9 430
15 17.06 0-5
{8}
мгла н/о +44.7 +8.0 11 1001.2 79
18 17.06 0-6
{8}
н/о +41.5 +7.5 13 1002.7
21 17.06 0-7
{7}
н/о +39.2 +9.8 17 1003.2 +30.0 +48.0
00 18.06 С 5-7
{11}
10 км ясно +36.3 +11.8 23 +36 +36 очень
жарко
1002.6 1002.3
03 18.06 С 1 10 км 3/3 600 м
[Cu hum]
+9.0 +8.6 97 2
06 18.06 С 8-11
{11}
8000 м мгла 3/0
[Ci fib]
+40.3 +8.2 14 +38 +40 очень
жарко
1003.9 1003.6 305
09 18.06 З 50 40 км 4/1 1000 м
[Cu hum]
+20.7 +16.9 79 +22 +22 комфорт 813.5
12 18.06 С 6-13
{16}
10 км ясно +45.6 +5.8 9 +43 +47 опасность
перегрева
1001.7 1001.4 351
15 18.06 С 8-11
{14}
10 км ясно +43.3 +8.1 12 +41 +41 опасность
перегрева
1001.1 1000.8 79

 

Местоположение метеостанции Аден (Йемен): широта 12.83 долгота 45.03 высота над уровнем моря 3 м.

В архиве по умолчанию представлена погода в Адене за последнюю неделю. Архивные данные за месяц целиком и за предыдущие месяцы, начиная с января 2011 года, Вы можете получить, выбрав интересующий диапазон дат из раскрывающегося списка и нажав кнопку "Ввод!".


*Определитесь, кто Вы:
робот инопланетянин человек

Внимание! Время в таблицах - всемирное. Для получения местного времени необходимо прибавить поправку, которая равна 3 ч.

Смотрите также архив погоды в соседних городах и на ближайших метеорологических станциях:

Погода в Таизе (Йемен) (136 км)
Погода в Дамаре (Йемен) (206 км)
Погода в Джибути () (249 км)
Погода в Марибе (Йемен) (291 км)
Погода в Ходейде (Йемен) (308 км)
Погода в Сане (Йемен) (313 км)
Погода в Хадже (Йемен) (368 км)
Погода в Харгейсе (Сомали) (385 км)
Погода в Босасо (Сомали) (483 км)
Погода в Рийяне (Йемен) (496 км)

Пояснения к столбцам:

Ветер - указаны скорость ветра в м/с - средняя за 10 мин, порывы в срок и между сроками (в фигурных скобках) и направление, откуда дует ветер: С - северный, СВ - северо-восточный, В - восточный, ЮВ - юго-восточный, Ю - южный, ЮЗ - юго-западный, З - западный, СЗ - северо-западный.
Видимость - горизонтальная дальность видимости в метрах или километрах. При видимости от 1 до 10 км при отсутствии осадков обычно наблюдается дымка, при ухудшении видимости до 1 км и менее - туман. В сухую погоду видимость может ухудшаться дымом, пылью или мглою.
Явления - указаны атмосферные явления, наблюдавшиеся в срок или в последний час перед сроком; фигурными скобками обозначены явления, наблюдавшиеся между сроками (за 1-3 часа до срока); квадратными скобками обозначены град или гололедные отложения с указанием их диаметра в мм.
Облачность - указаны через наклонную черту общая и нижняя облачность в баллах и высота нижней границы облаков в метрах; квадратными скобками обозначены формы облаков: Ci - перистые, Cs - перисто-слоистые, Cc - перисто-кучевые, Ac - высококучевые, As - высокослоистые, Sc - слоисто-кучевые, Ns - слоисто-дождевые, Cu - кучевые, Cb - кучево-дождевые. Подробнее классификацию облаков см. в Атласе облаков (PDF).
T - Температура воздуха - температура, измеренная на высоте 2 м над землей.
Td - Температура точки росы - температура, при понижении до которой содержащийся в воздухе водяной пар достигнет насыщения.
f - Относительная влажность воздуха - влажноcть воздуха, измеренная на высоте 2 м над землей.
Te - Эффективная температура - температура, которую ощущает одетый по сезону человек в тени. Характеристика душности погоды. При расчете учитывается влияние влажности воздуха и скорости ветра на теплоощущения человека.
Tes - Эффективная температура на солнце - температура, которую ощущает человек, с поправкой на солнечный нагрев. Характеристика знойности погоды. Зависит от высоты солнца над горизонтом, облачности и скорости ветра. Ночью, в пасмурную погоду, а также при ветре 12 м/с и более поправка равна нулю.
P - Атмосферное давление - приведенное к уровню моря атмосферное давление.
Po - Атмосферное давление - измеренное на уровне метеостанции атмосферное давление.
Tmin - Минимальная температура - минимум температуры воздуха на высоте 2 м над землей.
Tmax - Максимальная температура - максимум температуры воздуха на высоте 2 м над землей.
R - Количество осадков - Количество выпавших осадков за период времени, мм. При наведении курсора мыши на число - период времени, за который выпало указанное количество осадков.
R24 - Количество осадков - Количество выпавших осадков за 24 часа, мм.
S - Снежный покров - Высота снежного покрова, см. При наведении курсора мыши на число - состояние снежного покрова и степень покрытия местности в баллах.